Printer-friendly version

IAU Minor Planet Center

Minor Planet Center

MPEC 2008-D02 : 2008 CB175

The following Minor Planet Electronic Circular may be linked-to from your own Web pages, but must not otherwise be redistributed electronically.


Read MPEC 2008-D01 Read MPEC 2008-D03


M.P.E.C. 2008-D02                                Issued 2008 Feb. 16, 18:27 UT

     The Minor Planet Electronic Circulars contain information on unusual
         minor planets and routine data on comets.  They are published
   on behalf of Commission 20 of the International Astronomical Union by the
          Minor Planet Center, Smithsonian Astrophysical Observatory,
                          Cambridge, MA 02138, U.S.A.

             Prepared using the Tamkin Foundation Computer Network

                              MPC@CFA.HARVARD.EDU
          URL http://www.cfa.harvard.edu/iau/mpc.html  ISSN 1523-6714

                                  2008 CB175

Observations:
     K08CH5B* C2008 02 14.27858 10 08 02.36 -01 54 37.6          18.9 V ED002703
     K08CH5B  C2008 02 14.28499 10 08 06.36 -01 53 20.7          19.1 V ED002703
     K08CH5B  C2008 02 14.29144 10 08 10.46 -01 52 03.3          19.1 V ED002703
     K08CH5B  C2008 02 14.29787 10 08 14.53 -01 50 46.7          19.4 V ED002703
     K08CH5B  C2008 02 14.34400 10 08 43.20 -01 41 29.4          19.4 V ED002703
     K08CH5B  C2008 02 14.34895 10 08 46.27 -01 40 29.3          19.5 V ED002703
     K08CH5B  C2008 02 14.35390 10 08 49.43 -01 39 31.2          19.5 V ED002703
     K08CH5B  C2008 02 14.38651 10 09 09.78 -01 32 54.8          19.5 R ED002854
     K08CH5B  C2008 02 14.39254 10 09 13.79 -01 31 41.4          19.8 R ED002854
     K08CH5B  C2008 02 14.39856 10 09 17.41 -01 30 29.6          19.5 R ED002854
     K08CH5B  C2008 02 14.41616 10 09 28.33 -01 26 59.3          19.3 V ED002703
     K08CH5B  C2008 02 14.41781 10 09 29.48 -01 26 36.9          19.2 V ED002703
     K08CH5B  C2008 02 14.41948 10 09 30.52 -01 26 17.8          19.5 V ED002703
     K08CH5B  C2008 02 14.42118 10 09 31.57 -01 25 56.7          19.6 V ED002703
     K08CH5B  C2008 02 15.97656 10 27 34.67 +03 44 22.6          19.3 R ED002J95
     K08CH5B  C2008 02 16.01194 10 27 56.99 +03 51 22.9          19.5 R ED002J95
     K08CH5B  C2008 02 16.02216 10 28 03.40 +03 53 24.0          19.4 R ED002J95
     K08CH5B 5C2008 02 16.30715 10 31 20.40 +04 50 15.3          19.5 R ED002673
     K08CH5B 5C2008 02 16.31660 10 31 26.19 +04 52 06.0                 ED002673
     K08CH5B 5C2008 02 16.32891 10 31 33.70 +04 54 30.2                 ED002673
     K08CH5B 5C2008 02 16.33676 10 31 38.51 +04 56 01.8                 ED002673

Observer details:
673 Table Mountain Observatory, Wrightwood.  Observer J. Young.  0.61-m f/16
    Cassegrain + CCD.
703 Catalina Sky Survey.  Observer E. Beshore.  Measurers E. C. Beshore,
    A. Boattini, G. J. Garradd, A. R. Gibbs, A. D. Grauer, R. E. Hill,
    R. A. Kowalski, S. M. Larson, R. H. McNaught.  0.68-m Schmidt + CCD.
854 Sabino Canyon Observatory, Tucson.  Observer J. E. McGaha.  0.36-m f/10.0
    Schmidt-Cassegrain + CCD.
J95 Great Shefford.  Observer P. Birtwhistle.  0.40-m f/6.0 Schmidt-Cassegrain
    + CCD.

Orbital elements:
2008 CB175                                               Earth MOID = 0.0429 AU
Epoch 2007 Oct. 27.0 TT = JDT 2454400.5                 MPC
M 298.01349              (2000.0)            P               Q
n   0.62848293     Peri.  344.42049     -0.68206856     -0.72653007
a   1.3498134      Node   148.44482     +0.68679918     -0.67552355
e   0.2416573      Incl.    9.15752     +0.25117597     -0.12578548
P   1.57           H   25.5           G   0.15           U   7
Residuals in seconds of arc
080214 703  0.5-  1.1+    080214 854  0.2+  0.7+    080215 J95  0.1+  0.2-
080214 703  0.7-  0.7+    080214 854 (3.6+  1.2+)   080216 J95  0.0   0.2+
080214 703  0.3+  0.3+    080214 854  1.1+  0.3+    080216 J95  0.3-  0.2+
080214 703  1.0+  0.7-    080214 703  1.4-  1.8-    080216 673  0.1-  0.8+
080214 703  0.1-  0.1-    080214 703  0.2+  0.7+    080216 673  0.1+  0.1+
080214 703  0.3-  0.2+    080214 703  0.0   0.4-    080216 673  0.1+  0.6-
080214 703  0.8+  1.4-    080214 703  0.4-  0.2+    080216 673  0.6+  1.3-

Ephemeris:
2008 CB175               a,e,i = 1.35, 0.24, 9                   q = 1.0236
Date    TT    R. A. (2000) Decl.     Delta      r     Elong.  Phase     V
2008 02 14    10 04.73   -02 48.8    0.0423   1.028   163.3    16.0    19.6
2008 02 15    10 16.32   +00 32.1    0.0423   1.029   166.1    13.4    19.5
2008 02 16    10 27.78   +03 51.4    0.0427   1.030   168.1    11.4    19.4
2008 02 17    10 39.05   +07 05.9    0.0433   1.030   168.9    10.7    19.4
2008 02 18    10 50.06   +10 13.0    0.0442   1.031   168.3    11.2    19.5
2008 02 19    11 00.75   +13 10.5    0.0454   1.033   166.7    12.7    19.6
2008 02 20    11 11.07   +15 56.9    0.0467   1.034   164.6    14.7    19.7
2008 02 21    11 20.98   +18 31.3    0.0483   1.035   162.2    17.0    19.9
2008 02 22    11 30.46   +20 53.3    0.0500   1.036   159.8    19.2    20.0
2008 02 23    11 39.47   +23 03.2    0.0520   1.037   157.5    21.4    20.2
2008 02 24    11 48.01   +25 01.1    0.0540   1.039   155.3    23.5    20.4
2008 02 25    11 56.08   +26 47.9    0.0562   1.040   153.2    25.4    20.5
2008 02 26    12 03.68   +28 24.2    0.0586   1.042   151.3    27.1    20.6
2008 02 27    12 10.81   +29 50.8    0.0610   1.043   149.6    28.7    20.8
2008 02 28    12 17.49   +31 08.7    0.0636   1.045   148.0    30.2    20.9
2008 02 29    12 23.73   +32 18.6    0.0662   1.047   146.5    31.5    21.0
2008 03 01    12 29.54   +33 21.2    0.0689   1.048   145.2    32.6    21.2
2008 03 02    12 34.96   +34 17.3    0.0717   1.050   144.0    33.7    21.3
2008 03 03    12 39.98   +35 07.5    0.0745   1.052   143.0    34.6    21.4
2008 03 04    12 44.65   +35 52.4    0.0774   1.054   142.0    35.4    21.5
2008 03 05    12 48.97   +36 32.6    0.0804   1.056   141.1    36.1    21.6
2008 03 06    12 52.96   +37 08.3    0.0834   1.058   140.3    36.8    21.7
2008 03 07    12 56.65   +37 40.2    0.0864   1.060   139.6    37.3    21.8
2008 03 08    13 00.05   +38 08.5    0.0895   1.062   139.0    37.8    21.9
2008 03 09    13 03.19   +38 33.6    0.0926   1.064   138.4    38.3    22.0
2008 03 10    13 06.07   +38 55.7    0.0958   1.066   137.9    38.6    22.1
2008 03 11    13 08.72   +39 15.0    0.0990   1.068   137.5    38.9    22.2
2008 03 12    13 11.16   +39 31.9    0.102    1.071   137.1    39.2    22.3
2008 03 13    13 13.39   +39 46.5    0.105    1.073   136.7    39.4    22.3
2008 03 14    13 15.43   +39 59.0    0.109    1.076   136.4    39.6    22.4
2008 03 15    13 17.29   +40 09.5    0.112    1.078   136.1    39.8    22.5

Timothy B. Spahr             (C) Copyright 2008 MPC           M.P.E.C. 2008-D02

Read MPEC 2008-D01 Read MPEC 2008-D03


Our Web policy. Index to the CBAT/MPC/ICQ pages.


Valid HTML 4.01!